Cross City, FL

1:40 PM EDT on October 01, 2016 (GMT -0400)
Cross City

Weather History for KCTY - April, 2013

Change the Weather History Date:

Wednesday, April 3, 2013

  Actual Average Record
Temperature  
Mean Temperature 66 °F 65 °F  
Max Temperature 79 °F 78 °F 88 °F (2012)
Min Temperature 53 °F 52 °F 44 °F (2005)
Degree Days  
Heating Degree Days 0 3  
Month to date heating degree days 0 9  
Since 1 July heating degree days 1093 1264  
Cooling Degree Days 1 3  
Month to date cooling degree days 8 8  
Year to date cooling degree days 126 82  
Growing Degree Days 16 (Base 50)    
Moisture  
Dew Point 59 °F    
Average Humidity 76    
Maximum Humidity 93    
Minimum Humidity 58    
Precipitation  
Precipitation 0.64 in 0.15 in 2.49 in (2002)
Month to date precipitation 0.66 0.44  
Year to date precipitation 5.38 11.96  
Sea Level Pressure  
Sea Level Pressure 30.03 in    
Wind  
Wind Speed 4 mph (ESE)    
Max Wind Speed 12 mph    
Max Gust Speed 20 mph    
T = Trace of Precipitation, MM = Missing Value Source: NWS Daily Summary

Daily Weather History Graph

Daily Weather History Graph

Search for Another Location

Airport or City:

Trip Planner

Search our weather history database for the weather conditions in past years. The results will help you decide how hot, cold, wet, or windy it might be!

Date:

Astronomy

Apr. 03, 2013 Rise Set
Actual Time 7:19 AM EDT 7:52 PM EDT
Civil Twilight 6:55 AM EDT 8:16 PM EDT
Nautical Twilight 6:27 AM EDT 8:44 PM EDT
Astronomical Twilight 5:58 AM EDT 9:13 PM EDT
Moon 2:30 AM EDT (4/3) 1:30 PM EDT (4/3)
Length of Visible Light 13h 21m
Length of Day
12h 33m
Last Quarter, 45% of the Moon is Illuminated
Apr 3
Last Quarter
Apr 10
New
Apr 18
First Quarter
Apr 25
Full
May 2
Last Quarter

Hourly Weather History & Observations

Time (EDT) Temp. Dew Point Humidity Pressure Visibility Wind Dir Wind Speed Gust Speed Precip Events Conditions
12:53 AM 55.0 °F 50.0 °F 83% 30.09 in - Calm Calm - N/A   Unknown
1:53 AM 55.0 °F 50.0 °F 83% 30.08 in - Calm Calm - N/A   Unknown
2:53 AM 62.1 °F 50.0 °F 65% 30.04 in - ESE 4.6 mph - N/A   Unknown
3:53 AM 62.1 °F 52.0 °F 70% 30.01 in - ESE 3.5 mph - N/A   Unknown
4:53 AM 61.0 °F 52.0 °F 72% 30.03 in - Calm Calm - N/A   Unknown
5:53 AM 60.1 °F 53.1 °F 78% 30.02 in - Calm Calm - N/A   Unknown
6:53 AM 60.1 °F 54.0 °F 80% 30.03 in - Calm Calm - N/A   Unknown
7:53 AM 62.1 °F 55.0 °F 78% 30.05 in - Variable 3.5 mph - N/A   Unknown
8:53 AM 66.0 °F 57.0 °F 73% 30.05 in - ESE 4.6 mph - 0.01 in   Unknown
9:53 AM 72.0 °F 60.1 °F 66% 30.05 in - Variable 5.8 mph - N/A   Unknown
10:53 AM 73.0 °F 62.1 °F 68% 30.05 in - SE 5.8 mph - N/A   Unknown
11:53 AM 77.0 °F 63.0 °F 62% 30.04 in - Variable 6.9 mph - N/A   Unknown
12:53 PM 78.1 °F 63.0 °F 60% 30.03 in - Variable 3.5 mph - N/A   Unknown
1:53 PM 78.1 °F 63.0 °F 60% 30.03 in - Variable 3.5 mph - N/A   Unknown
2:53 PM 77.0 °F 64.0 °F 64% 30.04 in - West 6.9 mph - N/A   Unknown
3:53 PM 73.0 °F 66.9 °F 81% 30.00 in - Calm Calm - 0.01 in   Unknown
4:53 PM 73.9 °F 68.0 °F 82% 30.01 in - Calm Calm - N/A   Unknown
5:53 PM 73.0 °F 66.9 °F 81% 29.99 in - Calm Calm - 0.01 in   Unknown
6:53 PM 72.0 °F 64.9 °F 78% 30.00 in - Variable 4.6 mph - N/A   Unknown
7:53 PM 68.0 °F 64.0 °F 87% 30.00 in - NE 6.9 mph - N/A   Unknown
8:53 PM 66.9 °F 64.0 °F 90% 30.06 in - Calm Calm - 0.44 in   Unknown
9:53 PM 64.9 °F 63.0 °F 93% 30.02 in - East 8.1 mph - 0.13 in   Unknown
10:53 PM 64.9 °F 63.0 °F 93% 30.02 in - ESE 5.8 mph - 0.04 in   Unknown
11:53 PM 64.9 °F 63.0 °F 93% 29.99 in - ESE 8.1 mph 19.6 mph N/A   Unknown